Погода в Брэдфорде

Великобритания     53°47′44″N   1°45′08″W
темп.,
°C
ветер,
м/с
пор.,
м/с
влажн.,
%
обл.,
%
осадки,
мм/ч
давл.,
гПа
погр.,
м
16 июня, ср
ср1601:00+13юз248881 0.0 101481
04:00+12юз267057 0.0 1013165
07:00+15юз395690 0.0 1011394
10:00+19юз46551 0.0 1011876
13:00+23юз46476 0.0 10091488
16:00+23з565435 0.0 10081487
19:00+20з346625 0.1 1009895
22:00+15з248871 0.0 1009164
17 июня, чт
чт1701:00+14зсз2385100 0.0 1010165
04:00+14зсз2381100 0.0 1009181
07:00+14зсз2370100 0.0 1010264
10:00+14зсз2366100 0.0 1011391
13:00+15зсз3367100 0.0 1012650
16:00+13з1394100 0.9 1013233
19:00+15зсз248183 0.9 1014663
22:00+11з2578100 0.0 1016133
18 июня, пт
пт1801:00+10з2379100 0.0 101691
04:00+11зсз1377100 0.0 1016124
07:00+12сз126777 0.0 1017222
10:00+17ссв3345100 0.0 10171303
13:00+17ссв4442100 0.0 10171448
16:00+18ссв434269 0.0 10171787
19:00+16ссв545611 0.0 10161077
22:00+12св26830 0.0 1018418
19 июня, сб
сб1901:00+10сз119148 0.0 101859
04:00+9св119498 0.0 101879
07:00+11в128497 0.0 1018311
10:00+16вюв235836 0.0 10171103
13:00+17юв345389 0.2 10161297
16:00+18вюв5654100 0.1 10151334
19:00+17вюв566394 0.3 10141170
22:00+13в598297 0.0 1014622
20 июня, вс
вс2001:00+11в51290100 0.0 1013594
04:00+10всв61492100 0.0 1011720
07:00+11всв71481100 0.0 1008856
10:00+10всв71297100 2.6 1007958
13:00+11св51198100 5.0 1006748
16:00+11ссв3797100 0.0 1006549
19:00+11ссв3797100 0.1 1007445
22:00+11ссв3897100 0.0 1008392